This is the latest recevied weather packets stored in our database for station/object SP9KB-14. If no packets are shown the sender has not sent any weather packets the latest 1 day(s).
| Time | Temp. | Humidity | Pressure | Rain* | Wind** | Luminosity | Snow |
|---|---|---|---|---|---|---|---|
| 1778081675 | 23.89° C | 49% | 1029.8 hPa | 0 mm | - | - | - |
| 1778081374 | 23.89° C | 48% | 1029.9 hPa | 0 mm | - | - | - |
| 1778080172 | 24.44° C | 48% | 1029.9 hPa | 0 mm | - | - | - |
| 1778079270 | 25° C | 47% | 1030 hPa | 0 mm | - | - | - |
| 1778078068 | 25° C | 46% | 1030.2 hPa | 0 mm | - | - | - |
| 1778077467 | 23.89° C | 47% | 1030.3 hPa | 0 mm | - | - | - |
| 1778076565 | 23.89° C | 49% | 1030.1 hPa | 0 mm | - | - | - |
| 1778076264 | 23.89° C | 49% | 1030.3 hPa | 0 mm | - | - | - |
| 1778075964 | 24.44° C | 46% | 1030.5 hPa | 0 mm | - | - | - |
| 1778075363 | 24.44° C | 49% | 1030.3 hPa | 0 mm | - | - | - |
| 1778075062 | 25° C | 47% | 1030.5 hPa | 0 mm | - | - | - |
| 1778073860 | 24.44° C | 48% | 1030.6 hPa | 0 mm | - | - | - |
| 1778072357 | 24.44° C | 49% | 1030.4 hPa | 0 mm | - | - | - |
| 1778071756 | 24.44° C | 50% | 1030.6 hPa | 0 mm | - | - | - |
| 1778070854 | 23.33° C | 52% | 1031.1 hPa | 0 mm | - | - | - |
| 1778069051 | 23.89° C | 54% | 1030.9 hPa | 0 mm | - | - | - |
| 1778068750 | 23.89° C | 53% | 1030.9 hPa | 0 mm | - | - | - |
| 1778068149 | 23.33° C | 54% | 1030.7 hPa | 0 mm | - | - | - |
| 1778067548 | 23.33° C | 53% | 1030.9 hPa | 0 mm | - | - | - |
| 1778066646 | 23.33° C | 55% | 1030.8 hPa | 0 mm | - | - | - |
| 1778066045 | 23.33° C | 56% | 1030.6 hPa | 0 mm | - | - | - |
| 1778065444 | 23.33° C | 56% | 1030.9 hPa | 0 mm | - | - | - |
| 1778064542 | 22.78° C | 57% | 1030.9 hPa | 0 mm | - | - | - |
| 1778063941 | 23.33° C | 56% | 1030.8 hPa | 0 mm | - | - | - |
| 1778063039 | 23.33° C | 55% | 1031.2 hPa | 0 mm | - | - | - |
* Rain latest hour (hover to see other rain measurements)
** Current wind speed in m/s (hover to see current wind gust speed)